Year,Month,Day,Hour,Minute,Value (Times are PST for windspeed in km/hr)
2015,10,07,00,00,0.00
2015,10,07,00,01,0.00
2015,10,07,00,02,0.00
2015,10,07,00,03,0.00
2015,10,07,00,04,0.00
2015,10,07,00,05,0.00
2015,10,07,00,06,0.00
2015,10,07,00,07,0.00
2015,10,07,00,08,0.00
2015,10,07,00,09,0.00
2015,10,07,00,10,0.00
2015,10,07,00,11,0.00
2015,10,07,00,12,0.00
2015,10,07,00,13,0.00
2015,10,07,00,14,0.00
2015,10,07,00,15,0.00
2015,10,07,00,16,0.00
2015,10,07,00,17,0.00
2015,10,07,00,18,0.00
2015,10,07,00,19,0.00
2015,10,07,00,20,1.60
2015,10,07,00,21,2.00
2015,10,07,00,22,2.40
2015,10,07,00,23,2.60
2015,10,07,00,24,2.70
2015,10,07,00,25,2.40
2015,10,07,00,26,0.80
2015,10,07,00,27,0.00
2015,10,07,00,28,1.90
2015,10,07,00,29,0.20
2015,10,07,00,30,1.20
2015,10,07,00,31,2.00
2015,10,07,00,32,1.00
2015,10,07,00,33,0.20
2015,10,07,00,34,0.30
2015,10,07,00,35,0.70
2015,10,07,00,36,0.50
2015,10,07,00,37,0.20
2015,10,07,00,38,1.40
2015,10,07,00,39,0.50
2015,10,07,00,40,0.00
2015,10,07,00,41,2.20
2015,10,07,00,42,0.40
2015,10,07,00,43,0.90
2015,10,07,00,44,1.10
2015,10,07,00,45,0.60
2015,10,07,00,46,1.00
2015,10,07,00,47,0.50
2015,10,07,00,48,0.10
2015,10,07,00,49,0.10
2015,10,07,00,50,0.40
2015,10,07,00,51,0.70
2015,10,07,00,52,0.70
2015,10,07,00,53,1.00
2015,10,07,00,54,1.10
2015,10,07,00,55,1.60
2015,10,07,00,56,1.30
2015,10,07,00,57,1.30
2015,10,07,00,58,0.70
2015,10,07,00,59,0.90
2015,10,07,01,00,0.00
2015,10,07,01,01,0.00
2015,10,07,01,02,0.00
2015,10,07,01,03,0.00
2015,10,07,01,04,0.00
2015,10,07,01,05,0.00
2015,10,07,01,06,0.00
2015,10,07,01,07,0.30
2015,10,07,01,08,0.00
2015,10,07,01,09,0.00
2015,10,07,01,10,0.00
2015,10,07,01,11,0.00
2015,10,07,01,12,0.00
2015,10,07,01,13,0.00
2015,10,07,01,14,0.80
2015,10,07,01,15,0.90
2015,10,07,01,16,0.20
2015,10,07,01,17,0.00
2015,10,07,01,18,0.00
2015,10,07,01,19,0.00
2015,10,07,01,20,0.00
2015,10,07,01,21,0.00
2015,10,07,01,22,0.00
2015,10,07,01,23,0.00
2015,10,07,01,24,0.00
2015,10,07,01,25,0.00
2015,10,07,01,26,0.00
2015,10,07,01,27,0.00
2015,10,07,01,28,0.00
2015,10,07,01,29,0.00
2015,10,07,01,30,0.00
2015,10,07,01,31,0.00
2015,10,07,01,32,0.00
2015,10,07,01,33,0.00
2015,10,07,01,34,0.00
2015,10,07,01,35,0.00
2015,10,07,01,36,0.00
2015,10,07,01,37,0.00
2015,10,07,01,38,0.00
2015,10,07,01,39,0.00
2015,10,07,01,40,0.00
2015,10,07,01,41,0.00
2015,10,07,01,42,0.00
2015,10,07,01,43,0.00
2015,10,07,01,44,0.00
2015,10,07,01,45,0.00
2015,10,07,01,46,0.00
2015,10,07,01,47,0.00
2015,10,07,01,48,0.00
2015,10,07,01,49,0.00
2015,10,07,01,50,0.00
2015,10,07,01,51,0.00
2015,10,07,01,52,0.00
2015,10,07,01,53,0.00
2015,10,07,01,54,0.00
2015,10,07,01,55,0.00
2015,10,07,01,56,0.00
2015,10,07,01,57,0.00
2015,10,07,01,58,0.00
2015,10,07,01,59,0.00
2015,10,07,02,00,0.00
2015,10,07,02,01,0.00
2015,10,07,02,02,0.00
2015,10,07,02,03,0.00
2015,10,07,02,04,0.00
2015,10,07,02,05,0.00
2015,10,07,02,06,0.00
2015,10,07,02,07,0.00
2015,10,07,02,08,0.00
2015,10,07,02,09,0.00
2015,10,07,02,10,0.00
2015,10,07,02,11,0.00
2015,10,07,02,12,0.00
2015,10,07,02,13,0.00
2015,10,07,02,14,0.00
2015,10,07,02,15,0.00
2015,10,07,02,16,0.00
2015,10,07,02,17,0.00
2015,10,07,02,18,0.00
2015,10,07,02,19,0.00
2015,10,07,02,20,0.00
2015,10,07,02,21,0.00
2015,10,07,02,22,0.00
2015,10,07,02,23,0.00
2015,10,07,02,24,0.00
2015,10,07,02,25,0.50
2015,10,07,02,26,0.00
2015,10,07,02,27,0.00
2015,10,07,02,28,0.20
2015,10,07,02,29,1.20
2015,10,07,02,30,1.00
2015,10,07,02,31,0.00
2015,10,07,02,32,0.00
2015,10,07,02,33,0.00
2015,10,07,02,34,0.00
2015,10,07,02,35,0.00
2015,10,07,02,36,0.00
2015,10,07,02,37,0.00
2015,10,07,02,38,0.00
2015,10,07,02,39,0.00
2015,10,07,02,40,0.00
2015,10,07,02,41,0.00
2015,10,07,02,42,0.00
2015,10,07,02,43,0.00
2015,10,07,02,44,0.00
2015,10,07,02,45,0.00
2015,10,07,02,46,0.00
2015,10,07,02,47,0.00
2015,10,07,02,48,0.00
2015,10,07,02,49,0.00
2015,10,07,02,50,0.00
2015,10,07,02,51,0.00
2015,10,07,02,52,0.00
2015,10,07,02,53,0.00
2015,10,07,02,54,0.00
2015,10,07,02,55,0.00
2015,10,07,02,56,0.00
2015,10,07,02,57,0.00
2015,10,07,02,58,0.00
2015,10,07,02,59,0.00
2015,10,07,03,00,0.00
2015,10,07,03,01,0.00
2015,10,07,03,02,0.00
2015,10,07,03,03,0.00
2015,10,07,03,04,0.00
2015,10,07,03,05,0.00
2015,10,07,03,06,0.00
2015,10,07,03,07,0.40
2015,10,07,03,08,0.00
2015,10,07,03,09,0.00
2015,10,07,03,10,0.00
2015,10,07,03,11,0.00
2015,10,07,03,12,0.00
2015,10,07,03,13,0.00
2015,10,07,03,14,0.00
2015,10,07,03,15,0.00
2015,10,07,03,16,0.00
2015,10,07,03,17,0.00
2015,10,07,03,18,0.00
2015,10,07,03,19,0.00
2015,10,07,03,20,0.00
2015,10,07,03,21,0.00
2015,10,07,03,22,0.00
2015,10,07,03,23,0.00
2015,10,07,03,24,0.00
2015,10,07,03,25,0.00
2015,10,07,03,26,0.00
2015,10,07,03,27,0.00
2015,10,07,03,28,0.00
2015,10,07,03,29,0.00
2015,10,07,03,30,0.00
2015,10,07,03,31,0.00
2015,10,07,03,32,0.00
2015,10,07,03,33,0.00
2015,10,07,03,34,0.00
2015,10,07,03,35,0.00
2015,10,07,03,36,0.00
2015,10,07,03,37,0.00
2015,10,07,03,38,0.00
2015,10,07,03,39,0.00
2015,10,07,03,40,0.00
2015,10,07,03,41,0.00
2015,10,07,03,42,0.00
2015,10,07,03,43,0.00
2015,10,07,03,44,0.00
2015,10,07,03,45,0.00
2015,10,07,03,46,0.00
2015,10,07,03,47,0.00
2015,10,07,03,48,0.00
2015,10,07,03,49,0.00
2015,10,07,03,50,0.00
2015,10,07,03,51,0.00
2015,10,07,03,52,0.00
2015,10,07,03,53,0.00
2015,10,07,03,54,0.00
2015,10,07,03,55,0.00
2015,10,07,03,56,0.00
2015,10,07,03,57,0.00
2015,10,07,03,58,0.00
2015,10,07,03,59,0.00
2015,10,07,04,00,0.00
2015,10,07,04,01,0.00
2015,10,07,04,02,0.00
2015,10,07,04,03,0.00
2015,10,07,04,04,0.00
2015,10,07,04,05,0.00
2015,10,07,04,06,0.00
2015,10,07,04,07,0.00
2015,10,07,04,08,0.00
2015,10,07,04,09,0.00
2015,10,07,04,10,0.00
2015,10,07,04,11,0.00
2015,10,07,04,12,0.00
2015,10,07,04,13,0.00
2015,10,07,04,14,0.00
2015,10,07,04,15,0.00
2015,10,07,04,16,0.00
2015,10,07,04,17,0.00
2015,10,07,04,18,0.00
2015,10,07,04,19,0.00
2015,10,07,04,20,0.00
2015,10,07,04,21,0.00
2015,10,07,04,22,0.00
2015,10,07,04,23,0.80
2015,10,07,04,24,1.00
2015,10,07,04,25,2.00
2015,10,07,04,26,1.40
2015,10,07,04,27,1.90
2015,10,07,04,28,2.90
2015,10,07,04,29,3.10
2015,10,07,04,30,2.10
2015,10,07,04,31,1.80
2015,10,07,04,32,2.20
2015,10,07,04,33,2.00
2015,10,07,04,34,1.60
2015,10,07,04,35,1.50
2015,10,07,04,36,1.10
2015,10,07,04,37,0.20
2015,10,07,04,38,0.10
2015,10,07,04,39,0.00
2015,10,07,04,40,0.00
2015,10,07,04,41,0.00
2015,10,07,04,42,1.00
2015,10,07,04,43,0.30
2015,10,07,04,44,0.60
2015,10,07,04,45,1.00
2015,10,07,04,46,2.30
2015,10,07,04,47,3.30
2015,10,07,04,48,3.30
2015,10,07,04,49,2.60
2015,10,07,04,50,0.10
2015,10,07,04,51,0.00
2015,10,07,04,52,0.40
2015,10,07,04,53,1.00
2015,10,07,04,54,2.10
2015,10,07,04,55,2.00
2015,10,07,04,56,2.30
2015,10,07,04,57,1.80
2015,10,07,04,58,0.80
2015,10,07,04,59,0.70
2015,10,07,05,00,0.30
2015,10,07,05,01,0.00
2015,10,07,05,02,0.00
2015,10,07,05,03,0.00
2015,10,07,05,04,0.00
2015,10,07,05,05,0.00
2015,10,07,05,06,0.00
2015,10,07,05,07,0.00
2015,10,07,05,08,0.00
2015,10,07,05,09,0.00
2015,10,07,05,10,0.00
2015,10,07,05,11,0.00
2015,10,07,05,12,0.00
2015,10,07,05,13,0.00
2015,10,07,05,14,0.00
2015,10,07,05,15,0.00
2015,10,07,05,16,0.00
2015,10,07,05,17,0.00
2015,10,07,05,18,0.00
2015,10,07,05,19,0.00
2015,10,07,05,20,0.00
2015,10,07,05,21,0.00
2015,10,07,05,22,0.00
2015,10,07,05,23,0.00
2015,10,07,05,24,0.00
2015,10,07,05,25,0.00
2015,10,07,05,26,0.00
2015,10,07,05,27,0.00
2015,10,07,05,28,0.00
2015,10,07,05,29,1.30
2015,10,07,05,30,0.40
2015,10,07,05,31,4.10
2015,10,07,05,32,1.70
2015,10,07,05,33,1.60
2015,10,07,05,34,1.50
2015,10,07,05,35,2.20
2015,10,07,05,36,2.00
2015,10,07,05,37,3.20
2015,10,07,05,38,0.80
2015,10,07,05,39,2.40
2015,10,07,05,40,2.50
2015,10,07,05,41,2.00
2015,10,07,05,42,1.80
2015,10,07,05,43,1.70
2015,10,07,05,44,1.90
2015,10,07,05,45,2.90
2015,10,07,05,46,2.30
2015,10,07,05,47,2.70
2015,10,07,05,48,1.70
2015,10,07,05,49,4.30
2015,10,07,05,50,4.00
2015,10,07,05,51,2.10
2015,10,07,05,52,2.50
2015,10,07,05,53,3.60
2015,10,07,05,54,4.80
2015,10,07,05,55,2.90
2015,10,07,05,56,3.30
2015,10,07,05,57,2.40
2015,10,07,05,58,5.00
2015,10,07,05,59,2.90
2015,10,07,06,00,2.90
2015,10,07,06,01,2.70
2015,10,07,06,02,2.70
2015,10,07,06,03,2.60
2015,10,07,06,04,3.40
2015,10,07,06,05,3.50
2015,10,07,06,06,2.30
2015,10,07,06,07,3.00
2015,10,07,06,08,2.40
2015,10,07,06,09,1.00
2015,10,07,06,10,2.90
2015,10,07,06,11,2.30
2015,10,07,06,12,1.90
2015,10,07,06,13,1.80
2015,10,07,06,14,0.50
2015,10,07,06,15,0.50
2015,10,07,06,16,0.50
2015,10,07,06,17,1.90
2015,10,07,06,18,1.20
2015,10,07,06,19,0.70
2015,10,07,06,20,0.00
2015,10,07,06,21,0.00
2015,10,07,06,22,2.70
2015,10,07,06,23,2.90
2015,10,07,06,24,2.60
2015,10,07,06,25,0.80
2015,10,07,06,26,0.50
2015,10,07,06,27,2.90
2015,10,07,06,28,2.90
2015,10,07,06,29,0.20
2015,10,07,06,30,2.10
2015,10,07,06,31,2.20
2015,10,07,06,32,1.10
2015,10,07,06,33,1.20
2015,10,07,06,34,1.60
2015,10,07,06,35,2.00
2015,10,07,06,36,2.20
2015,10,07,06,37,1.70
2015,10,07,06,38,2.40
2015,10,07,06,39,4.20
2015,10,07,06,40,2.60
2015,10,07,06,41,3.20
2015,10,07,06,42,1.10
2015,10,07,06,43,2.90
2015,10,07,06,44,2.70
2015,10,07,06,45,2.70
2015,10,07,06,46,1.80
2015,10,07,06,47,2.00
2015,10,07,06,48,2.60
2015,10,07,06,49,2.70
2015,10,07,06,50,6.30
2015,10,07,06,51,3.00
2015,10,07,06,52,2.90
2015,10,07,06,53,3.40
2015,10,07,06,54,5.20
2015,10,07,06,55,4.90
2015,10,07,06,56,5.20
2015,10,07,06,57,5.40
2015,10,07,06,58,5.10
2015,10,07,06,59,4.30
2015,10,07,07,00,2.70
2015,10,07,07,01,5.40
2015,10,07,07,02,3.70
2015,10,07,07,03,1.60
2015,10,07,07,04,3.60
2015,10,07,07,05,4.60
2015,10,07,07,06,3.50
2015,10,07,07,07,8.10
2015,10,07,07,08,4.20
2015,10,07,07,09,5.50
2015,10,07,07,10,3.80
2015,10,07,07,11,9.70
2015,10,07,07,12,4.10
2015,10,07,07,13,11.40
2015,10,07,07,14,6.00
2015,10,07,07,15,2.50
2015,10,07,07,16,6.10
2015,10,07,07,17,6.20
2015,10,07,07,18,5.50
2015,10,07,07,19,3.70
2015,10,07,07,20,10.70
2015,10,07,07,21,6.60
2015,10,07,07,22,5.20
2015,10,07,07,23,3.40
2015,10,07,07,24,3.20
2015,10,07,07,25,2.20
2015,10,07,07,26,0.50
2015,10,07,07,27,5.00
2015,10,07,07,28,7.00
2015,10,07,07,29,3.90
2015,10,07,07,30,2.00
2015,10,07,07,31,3.20
2015,10,07,07,32,3.30
2015,10,07,07,33,4.90
2015,10,07,07,34,3.70
2015,10,07,07,35,2.70
2015,10,07,07,36,2.70
2015,10,07,07,37,2.10
2015,10,07,07,38,2.60
2015,10,07,07,39,1.60
2015,10,07,07,40,3.10
2015,10,07,07,41,1.60
2015,10,07,07,42,3.40
2015,10,07,07,43,4.10
2015,10,07,07,44,4.30
2015,10,07,07,45,6.10
2015,10,07,07,46,2.40
2015,10,07,07,47,2.80
2015,10,07,07,48,5.30
2015,10,07,07,49,2.20
2015,10,07,07,50,2.30
2015,10,07,07,51,1.30
2015,10,07,07,52,0.50
2015,10,07,07,53,6.90
2015,10,07,07,54,6.40
2015,10,07,07,55,3.50
2015,10,07,07,56,2.00
2015,10,07,07,57,0.40
2015,10,07,07,58,7.30
2015,10,07,07,59,5.40
2015,10,07,08,00,4.60
2015,10,07,08,01,3.10
2015,10,07,08,02,2.90
2015,10,07,08,03,4.30
2015,10,07,08,04,9.10
2015,10,07,08,05,6.30
2015,10,07,08,06,4.50
2015,10,07,08,07,6.00
2015,10,07,08,08,6.10
2015,10,07,08,09,3.20
2015,10,07,08,10,3.90
2015,10,07,08,11,2.30
2015,10,07,08,12,3.60
2015,10,07,08,13,7.00
2015,10,07,08,14,8.80
2015,10,07,08,15,5.20
2015,10,07,08,16,5.70
2015,10,07,08,17,9.30
2015,10,07,08,18,8.80
2015,10,07,08,19,8.90
2015,10,07,08,20,8.30
2015,10,07,08,21,7.90
2015,10,07,08,22,6.00
2015,10,07,08,23,6.00
2015,10,07,08,24,7.30
2015,10,07,08,25,4.50
2015,10,07,08,26,3.40
2015,10,07,08,27,4.10
2015,10,07,08,28,7.80
2015,10,07,08,29,9.20
2015,10,07,08,30,5.80
2015,10,07,08,31,1.80
2015,10,07,08,32,7.40
2015,10,07,08,33,5.60
2015,10,07,08,34,6.00
2015,10,07,08,35,5.00
2015,10,07,08,36,7.60
2015,10,07,08,37,2.00
2015,10,07,08,38,6.50
2015,10,07,08,39,7.10
2015,10,07,08,40,7.60
2015,10,07,08,41,7.90
2015,10,07,08,42,5.50
2015,10,07,08,43,10.00
2015,10,07,08,44,10.30
2015,10,07,08,45,6.70
2015,10,07,08,46,4.50
2015,10,07,08,47,7.40
2015,10,07,08,48,4.50
2015,10,07,08,49,3.40
2015,10,07,08,50,3.60
2015,10,07,08,51,5.10
2015,10,07,08,52,5.20
2015,10,07,08,53,7.20
2015,10,07,08,54,9.00
2015,10,07,08,55,6.30
2015,10,07,08,56,7.20
2015,10,07,08,57,6.00
2015,10,07,08,58,9.10
2015,10,07,08,59,6.70
2015,10,07,09,00,7.10
2015,10,07,09,01,3.80
2015,10,07,09,02,2.30
2015,10,07,09,03,9.90
2015,10,07,09,04,4.40
2015,10,07,09,05,4.90
2015,10,07,09,06,5.30
2015,10,07,09,07,6.50
2015,10,07,09,08,7.00
2015,10,07,09,09,9.70
2015,10,07,09,10,6.30
2015,10,07,09,11,5.80
2015,10,07,09,12,6.10
2015,10,07,09,13,7.80
2015,10,07,09,14,6.00
2015,10,07,09,15,4.80
2015,10,07,09,16,5.50
2015,10,07,09,17,6.40
2015,10,07,09,18,6.10
2015,10,07,09,19,11.80
2015,10,07,09,20,6.60
2015,10,07,09,21,8.90
2015,10,07,09,22,11.70
2015,10,07,09,23,7.90
2015,10,07,09,24,8.00
2015,10,07,09,25,7.80
2015,10,07,09,26,5.40
2015,10,07,09,27,7.40
2015,10,07,09,28,6.70
2015,10,07,09,29,3.60
2015,10,07,09,30,7.80
2015,10,07,09,31,6.70
2015,10,07,09,32,4.30
2015,10,07,09,33,4.20
2015,10,07,09,34,5.60
2015,10,07,09,35,3.30
2015,10,07,09,36,5.00
2015,10,07,09,37,4.20
2015,10,07,09,38,8.50
2015,10,07,09,39,5.40
2015,10,07,09,40,4.50
2015,10,07,09,41,4.10
2015,10,07,09,42,5.60
2015,10,07,09,43,9.50
2015,10,07,09,44,7.30
2015,10,07,09,45,5.80
2015,10,07,09,46,7.00
2015,10,07,09,47,2.50
2015,10,07,09,48,8.50
2015,10,07,09,49,8.90
2015,10,07,09,50,7.20
2015,10,07,09,51,7.80
2015,10,07,09,52,5.80
2015,10,07,09,53,5.50
2015,10,07,09,54,2.90
2015,10,07,09,55,7.30
2015,10,07,09,56,5.30
2015,10,07,09,57,3.00
2015,10,07,09,58,2.90
2015,10,07,09,59,6.80
2015,10,07,10,00,4.60
2015,10,07,10,01,5.60
2015,10,07,10,02,7.90
2015,10,07,10,03,6.60
2015,10,07,10,04,4.50
2015,10,07,10,05,4.10
2015,10,07,10,06,6.70
2015,10,07,10,07,6.30
2015,10,07,10,08,6.50
2015,10,07,10,09,5.70
2015,10,07,10,10,5.00
2015,10,07,10,11,6.30
2015,10,07,10,12,5.50
2015,10,07,10,13,4.90
2015,10,07,10,14,4.30
2015,10,07,10,15,7.70
2015,10,07,10,16,6.90
2015,10,07,10,17,2.60
2015,10,07,10,18,4.90
2015,10,07,10,19,7.60
2015,10,07,10,20,5.30
2015,10,07,10,21,5.70
2015,10,07,10,22,3.60
2015,10,07,10,23,4.80
2015,10,07,10,24,4.80
2015,10,07,10,25,4.00
2015,10,07,10,26,4.90
2015,10,07,10,27,4.60
2015,10,07,10,28,3.40
2015,10,07,10,29,8.40
2015,10,07,10,30,8.20
2015,10,07,10,31,6.30
2015,10,07,10,32,4.80
2015,10,07,10,33,8.80
2015,10,07,10,34,5.50
2015,10,07,10,35,3.60
2015,10,07,10,36,1.30
2015,10,07,10,37,2.00
2015,10,07,10,38,4.60
2015,10,07,10,39,5.50
2015,10,07,10,40,7.30
2015,10,07,10,41,3.70
2015,10,07,10,42,3.60
2015,10,07,10,43,4.50
2015,10,07,10,44,7.50
2015,10,07,10,45,8.00
2015,10,07,10,46,7.10
2015,10,07,10,47,2.80
2015,10,07,10,48,6.20
2015,10,07,10,49,8.80
2015,10,07,10,50,7.30
2015,10,07,10,51,6.60
2015,10,07,10,52,7.30
2015,10,07,10,53,5.50
2015,10,07,10,54,2.50
2015,10,07,10,55,5.10
2015,10,07,10,56,2.60
2015,10,07,10,57,2.00
2015,10,07,10,58,4.80
2015,10,07,10,59,3.00
2015,10,07,11,00,7.10
2015,10,07,11,01,7.30
2015,10,07,11,02,6.30
2015,10,07,11,03,3.70
2015,10,07,11,04,3.60
2015,10,07,11,05,7.30
2015,10,07,11,06,6.60
2015,10,07,11,07,5.80
2015,10,07,11,08,7.90
2015,10,07,11,09,8.40
2015,10,07,11,10,6.40
2015,10,07,11,11,10.00
2015,10,07,11,12,9.60
2015,10,07,11,13,5.30
2015,10,07,11,14,6.20
2015,10,07,11,15,4.80
2015,10,07,11,16,5.10
2015,10,07,11,17,7.10
2015,10,07,11,18,5.80
2015,10,07,11,19,6.10
2015,10,07,11,20,10.10
2015,10,07,11,21,10.70
2015,10,07,11,22,8.20
2015,10,07,11,23,9.40
2015,10,07,11,24,8.70
2015,10,07,11,25,5.30
2015,10,07,11,26,6.60
2015,10,07,11,27,6.70
2015,10,07,11,28,6.60
2015,10,07,11,29,7.50
2015,10,07,11,30,4.70
2015,10,07,11,31,4.20
2015,10,07,11,32,5.60
2015,10,07,11,33,8.90
2015,10,07,11,34,8.00
2015,10,07,11,35,4.90
2015,10,07,11,36,6.50
2015,10,07,11,37,4.00
2015,10,07,11,38,5.70
2015,10,07,11,39,3.30
2015,10,07,11,40,8.50
2015,10,07,11,41,6.30
2015,10,07,11,42,7.30
2015,10,07,11,43,6.70
2015,10,07,11,44,8.30
2015,10,07,11,45,7.50
2015,10,07,11,46,9.30
2015,10,07,11,47,4.20
2015,10,07,11,48,11.50
2015,10,07,11,49,5.70
2015,10,07,11,50,9.40
2015,10,07,11,51,8.10
2015,10,07,11,52,12.10
2015,10,07,11,53,5.60
2015,10,07,11,54,11.10
2015,10,07,11,55,2.70
2015,10,07,11,56,4.00
2015,10,07,11,57,7.20
2015,10,07,11,58,7.30
2015,10,07,11,59,2.60
2015,10,07,12,00,6.60
2015,10,07,12,01,7.90
2015,10,07,12,02,6.80
2015,10,07,12,03,5.60
2015,10,07,12,04,8.50
2015,10,07,12,05,7.00
2015,10,07,12,06,7.00
2015,10,07,12,07,7.50
2015,10,07,12,08,6.40
2015,10,07,12,09,9.80
2015,10,07,12,10,11.00
2015,10,07,12,11,7.20
2015,10,07,12,12,5.70
2015,10,07,12,13,6.20
2015,10,07,12,14,9.70
2015,10,07,12,15,5.70
2015,10,07,12,16,6.10
2015,10,07,12,17,8.20
2015,10,07,12,18,6.40
2015,10,07,12,19,5.40
2015,10,07,12,20,8.40
2015,10,07,12,21,7.90
2015,10,07,12,22,4.60
2015,10,07,12,23,5.80
2015,10,07,12,24,6.70
2015,10,07,12,25,9.50
2015,10,07,12,26,8.70
2015,10,07,12,27,12.20
2015,10,07,12,28,9.30
2015,10,07,12,29,10.60
2015,10,07,12,30,10.20
2015,10,07,12,31,9.00
2015,10,07,12,32,9.40
2015,10,07,12,33,8.90
2015,10,07,12,34,9.50
2015,10,07,12,35,6.90
2015,10,07,12,36,8.60
2015,10,07,12,37,9.40
2015,10,07,12,38,10.30
2015,10,07,12,39,7.70
2015,10,07,12,40,3.90
2015,10,07,12,41,7.80
2015,10,07,12,42,7.20
2015,10,07,12,43,6.40
2015,10,07,12,44,8.60
2015,10,07,12,45,5.90
2015,10,07,12,46,6.80
2015,10,07,12,47,7.90
2015,10,07,12,48,6.90
2015,10,07,12,49,4.00
2015,10,07,12,50,3.30
2015,10,07,12,51,7.10
2015,10,07,12,52,6.00
2015,10,07,12,53,7.30
2015,10,07,12,54,8.00
2015,10,07,12,55,7.60
2015,10,07,12,56,4.10
2015,10,07,12,57,5.00
2015,10,07,12,58,6.40
2015,10,07,12,59,6.00
2015,10,07,13,00,4.80
2015,10,07,13,01,6.70
2015,10,07,13,02,8.40
2015,10,07,13,03,5.70
2015,10,07,13,04,5.70
2015,10,07,13,05,5.60
2015,10,07,13,06,6.10
2015,10,07,13,07,5.30
2015,10,07,13,08,7.40
2015,10,07,13,09,3.80
2015,10,07,13,10,8.50
2015,10,07,13,11,3.20
2015,10,07,13,12,3.60
2015,10,07,13,13,4.70
2015,10,07,13,14,2.90
2015,10,07,13,15,6.10
2015,10,07,13,16,5.20
2015,10,07,13,17,6.30
2015,10,07,13,18,9.40
2015,10,07,13,19,4.90
2015,10,07,13,20,4.70
2015,10,07,13,21,7.20
2015,10,07,13,22,7.80
2015,10,07,13,23,4.80
2015,10,07,13,24,6.20
2015,10,07,13,25,8.10
2015,10,07,13,26,6.20
2015,10,07,13,27,5.70
2015,10,07,13,28,4.70
2015,10,07,13,29,9.40
2015,10,07,13,30,7.80
2015,10,07,13,31,3.50
2015,10,07,13,32,6.40
2015,10,07,13,33,5.90
2015,10,07,13,34,5.50
2015,10,07,13,35,5.60
2015,10,07,13,36,8.10
2015,10,07,13,37,9.70
2015,10,07,13,38,7.30
2015,10,07,13,39,7.20
2015,10,07,13,40,4.70
2015,10,07,13,41,2.80
2015,10,07,13,42,3.80
2015,10,07,13,43,7.30
2015,10,07,13,44,7.10
2015,10,07,13,45,5.20
2015,10,07,13,46,2.50
2015,10,07,13,47,5.70
2015,10,07,13,48,5.30
2015,10,07,13,49,3.50
2015,10,07,13,50,5.20
2015,10,07,13,51,4.30
2015,10,07,13,52,12.30
2015,10,07,13,53,8.10
2015,10,07,13,54,7.10
2015,10,07,13,55,9.10
2015,10,07,13,56,6.90
2015,10,07,13,57,10.30
2015,10,07,13,58,8.40
2015,10,07,13,59,6.50
2015,10,07,14,00,3.40
2015,10,07,14,01,9.50
2015,10,07,14,02,5.40
2015,10,07,14,03,8.20
2015,10,07,14,04,6.70
2015,10,07,14,05,8.60
2015,10,07,14,06,8.10
2015,10,07,14,07,8.30
2015,10,07,14,08,11.00
2015,10,07,14,09,8.40
2015,10,07,14,10,7.50
2015,10,07,14,11,9.10
2015,10,07,14,12,9.20
2015,10,07,14,13,10.70
2015,10,07,14,14,5.20
2015,10,07,14,15,10.40
2015,10,07,14,16,4.70
2015,10,07,14,17,7.30
2015,10,07,14,18,13.50
2015,10,07,14,19,7.50
2015,10,07,14,20,8.60
2015,10,07,14,21,8.80
2015,10,07,14,22,5.80
2015,10,07,14,23,7.60
2015,10,07,14,24,10.90
2015,10,07,14,25,10.10
2015,10,07,14,26,7.80
2015,10,07,14,27,8.60
2015,10,07,14,28,6.20
2015,10,07,14,29,10.60
2015,10,07,14,30,7.10
2015,10,07,14,31,7.70
2015,10,07,14,32,6.00
2015,10,07,14,33,11.00
2015,10,07,14,34,11.20
2015,10,07,14,35,9.70
2015,10,07,14,36,5.10
2015,10,07,14,37,5.70
2015,10,07,14,38,6.60
2015,10,07,14,39,8.70
2015,10,07,14,40,10.40
2015,10,07,14,41,10.10
2015,10,07,14,42,10.30
2015,10,07,14,43,7.20
2015,10,07,14,44,9.10
2015,10,07,14,45,5.80
2015,10,07,14,46,6.20
2015,10,07,14,47,6.40
2015,10,07,14,48,5.10
2015,10,07,14,49,9.40
2015,10,07,14,50,8.70
2015,10,07,14,51,8.90
2015,10,07,14,52,9.50
2015,10,07,14,53,11.10
2015,10,07,14,54,8.50
2015,10,07,14,55,6.30
2015,10,07,14,56,3.70
2015,10,07,14,57,5.40
2015,10,07,14,58,4.50
2015,10,07,14,59,7.30
2015,10,07,15,00,5.90
2015,10,07,15,01,7.70
2015,10,07,15,02,8.60
2015,10,07,15,03,9.10
2015,10,07,15,04,10.30
2015,10,07,15,05,8.20
2015,10,07,15,06,10.30
2015,10,07,15,07,13.50
2015,10,07,15,08,16.30
2015,10,07,15,09,5.70
2015,10,07,15,10,5.10
2015,10,07,15,11,9.60
2015,10,07,15,12,5.40
2015,10,07,15,13,5.40
2015,10,07,15,14,5.40
2015,10,07,15,15,6.90
2015,10,07,15,16,9.30
2015,10,07,15,17,9.10
2015,10,07,15,18,8.20
2015,10,07,15,19,5.20
2015,10,07,15,20,7.50
2015,10,07,15,21,8.30
2015,10,07,15,22,6.40
2015,10,07,15,23,9.10
2015,10,07,15,24,10.50
2015,10,07,15,25,5.40
2015,10,07,15,26,11.00
2015,10,07,15,27,13.20
2015,10,07,15,28,7.30
2015,10,07,15,29,12.80
2015,10,07,15,30,8.80
2015,10,07,15,31,11.40
2015,10,07,15,32,11.00
2015,10,07,15,33,7.20
2015,10,07,15,34,6.70
2015,10,07,15,35,7.90
2015,10,07,15,36,9.70
2015,10,07,15,37,7.70
2015,10,07,15,38,4.60
2015,10,07,15,39,7.90
2015,10,07,15,40,12.60
2015,10,07,15,41,10.80
2015,10,07,15,42,4.20
2015,10,07,15,43,7.90
2015,10,07,15,44,6.60
2015,10,07,15,45,7.70
2015,10,07,15,46,10.30
2015,10,07,15,47,11.10
2015,10,07,15,48,8.60
2015,10,07,15,49,6.70
2015,10,07,15,50,10.60
2015,10,07,15,51,6.50
2015,10,07,15,52,3.30
2015,10,07,15,53,5.20
2015,10,07,15,54,4.60
2015,10,07,15,55,3.20
2015,10,07,15,56,7.50
2015,10,07,15,57,4.40
2015,10,07,15,58,6.90
2015,10,07,15,59,8.50
2015,10,07,16,00,8.00
2015,10,07,16,01,5.70
2015,10,07,16,02,9.70
2015,10,07,16,03,6.80
2015,10,07,16,04,4.70
2015,10,07,16,05,9.50
2015,10,07,16,06,7.00
2015,10,07,16,07,5.90
2015,10,07,16,08,3.00
2015,10,07,16,09,6.90
2015,10,07,16,10,5.80
2015,10,07,16,11,3.90
2015,10,07,16,12,5.30
2015,10,07,16,13,5.30
2015,10,07,16,14,4.70
2015,10,07,16,15,6.70
2015,10,07,16,16,9.40
2015,10,07,16,17,10.90
2015,10,07,16,18,11.30
2015,10,07,16,19,8.10
2015,10,07,16,20,8.40
2015,10,07,16,21,8.90
2015,10,07,16,22,8.10
2015,10,07,16,23,6.70
2015,10,07,16,24,9.60
2015,10,07,16,25,5.10
2015,10,07,16,26,9.80
2015,10,07,16,27,9.10
2015,10,07,16,28,8.20
2015,10,07,16,29,7.60
2015,10,07,16,30,7.20
2015,10,07,16,31,7.80
2015,10,07,16,32,3.80
2015,10,07,16,33,7.70
2015,10,07,16,34,3.90
2015,10,07,16,35,7.40
2015,10,07,16,36,4.90
2015,10,07,16,37,7.20
2015,10,07,16,38,6.40
2015,10,07,16,39,7.00
2015,10,07,16,40,6.20
2015,10,07,16,41,2.70
2015,10,07,16,42,7.10
2015,10,07,16,43,6.40
2015,10,07,16,44,11.60
2015,10,07,16,45,8.50
2015,10,07,16,46,5.80
2015,10,07,16,47,8.00
2015,10,07,16,48,13.40
2015,10,07,16,49,11.90
2015,10,07,16,50,8.60
2015,10,07,16,51,7.20
2015,10,07,16,52,10.80
2015,10,07,16,53,8.20
2015,10,07,16,54,8.20
2015,10,07,16,55,10.10
2015,10,07,16,56,4.20
2015,10,07,16,57,5.80
2015,10,07,16,58,8.30
2015,10,07,16,59,7.50
2015,10,07,17,00,6.90
2015,10,07,17,01,4.10
2015,10,07,17,02,7.60
2015,10,07,17,03,9.80
2015,10,07,17,04,8.90
2015,10,07,17,05,9.10
2015,10,07,17,06,6.20
2015,10,07,17,07,10.80
2015,10,07,17,08,10.20
2015,10,07,17,09,16.20
2015,10,07,17,10,9.80
2015,10,07,17,11,11.00
2015,10,07,17,12,12.90
2015,10,07,17,13,6.90
2015,10,07,17,14,5.80
2015,10,07,17,15,6.00
2015,10,07,17,16,8.10
2015,10,07,17,17,11.70
2015,10,07,17,18,6.90
2015,10,07,17,19,11.90
2015,10,07,17,20,6.40
2015,10,07,17,21,9.50
2015,10,07,17,22,8.70
2015,10,07,17,23,7.30
2015,10,07,17,24,6.10
2015,10,07,17,25,8.60
2015,10,07,17,26,4.90
2015,10,07,17,27,9.50
2015,10,07,17,28,6.90
2015,10,07,17,29,5.40
2015,10,07,17,30,2.60
2015,10,07,17,31,5.80
2015,10,07,17,32,6.70
2015,10,07,17,33,7.30
2015,10,07,17,34,6.30
2015,10,07,17,35,5.80
2015,10,07,17,36,6.30
2015,10,07,17,37,6.80
2015,10,07,17,38,7.60
2015,10,07,17,39,7.90
2015,10,07,17,40,6.00
2015,10,07,17,41,6.50
2015,10,07,17,42,4.40
2015,10,07,17,43,5.30
2015,10,07,17,44,6.90
2015,10,07,17,45,9.10
2015,10,07,17,46,11.20
2015,10,07,17,47,7.60
2015,10,07,17,48,6.30
2015,10,07,17,49,9.30
2015,10,07,17,50,7.20
2015,10,07,17,51,3.20
2015,10,07,17,52,4.30
2015,10,07,17,53,5.70
2015,10,07,17,54,5.20
2015,10,07,17,55,3.30
2015,10,07,17,56,8.80
2015,10,07,17,57,5.20
2015,10,07,17,58,2.70
2015,10,07,17,59,6.30
2015,10,07,18,00,6.00
2015,10,07,18,01,2.60
2015,10,07,18,02,4.50
2015,10,07,18,03,4.50